[[{"header":{"parameterUnit":"m.s-1","parameterCategory":1,"la1":30.2991,"la2":30.254,"lo1":-89.0895,"lo2":-89.0444,"dy":0.0017,"dx":0.0017,"nx":28,"ny":28,"refTime":"2024-10-14T03:00:00:Z","depth":0,"parameterNumber":2,"parameterNumberName":"U-component_of_WINDS"},"data":[0,0,0,0,0,0,0,0,0,0,0,0,0,0,0,0,0,0,0,0,0,0,0,0,0,0,0,0,0,0,0,0,0,0,0,0,0,0,0,0,0,0,0,0,0,0,0,0,0,0,0,0,0,0,0,0,0,0,1.9255,1.9255,0,1.9289,1.9289,1.929,1.9162,1.9159,1.9155,1.9151,1.9191,1.9196,1.92,0,0,0,0,0,0,0,0,0,0,0,0,0,1.9088,1.9092,1.9255,1.9255,1.9256,1.9289,1.9289,1.929,1.9163,1.9158,1.9154,1.9149,1.919,1.9195,1.9201,0,0,0,0,0,0,0,0,0,0,0,0,0,1.9145,1.9093,1.9255,1.9196,1.9191,1.9289,1.9289,1.929,1.9164,1.9158,1.9153,1.9147,1.9188,1.9195,1.9202,1.9358,0,0,1.9223,1.9226,0,0,0,0,0,0,0,0,1.9142,1.9151,1.9205,1.9201,1.9195,1.9215,1.9245,1.9313,1.9165,1.9175,1.9151,1.9145,1.9204,1.921,1.9229,1.936,1.9362,1.9223,1.9228,1.9231,1.9232,0,0,0,0,0,0,0,1.9138,1.9149,1.9268,1.9205,1.92,1.9171,1.9173,1.9257,1.9221,1.9173,1.9164,1.917,1.9201,1.9222,1.9229,1.9363,1.9223,1.9229,1.9234,1.9236,1.9629,1.9635,0,0,0,0,0,0,1.9141,1.9147,1.9267,1.9269,1.9154,1.9179,1.9181,1.9215,1.922,1.9215,1.9175,1.9164,1.9213,1.9221,1.923,1.9416,1.923,1.9237,1.9241,1.9623,1.963,1.9637,0,0,0,0,0,0,1.9138,1.9153,1.9266,1.9206,1.9218,1.9187,1.9227,1.9218,1.924,1.9221,1.9214,1.9203,1.9209,1.922,1.9328,1.9415,1.924,1.9246,1.9615,1.9625,1.9634,1.9788,0,0,0,0,0,0,1.9134,1.9153,1.921,1.9208,1.9221,1.9362,1.9232,1.9223,1.9251,1.9237,1.9245,1.9241,1.9205,1.9318,1.9335,1.9422,1.9252,1.9607,1.962,1.9631,1.9775,1.9802,1.9825,0,0,0,0,0,1.9128,1.9252,1.9213,1.9229,1.9292,1.9367,1.9375,1.9329,1.9259,1.9318,1.9306,1.9241,1.9403,1.933,1.9348,1.9438,1.9602,1.9616,1.963,1.9764,1.9797,1.9824,0,0,0,0,0,0,1.9266,1.9251,1.9207,1.9334,1.9353,1.9345,1.9417,1.9365,1.9405,1.9391,1.9334,1.9337,1.9457,1.9458,1.9377,1.9592,1.9491,1.9509,1.9587,1.9617,1.9642,1.9639,1.9258,0,0,0,0,0,1.9311,1.9371,1.9355,1.9469,1.948,1.9448,1.9479,1.9442,1.946,1.9468,1.9464,1.9485,1.9541,1.9579,1.9629,1.9775,1.9777,1.9846,1.9871,1.9891,1.9908,1.9989,2.0021,1.9684,1.9683,1.9683,0,0,1.9405,1.9404,1.9445,1.9497,1.9506,1.9573,1.9455,1.9529,1.9579,1.9479,1.9581,1.958,1.9601,1.9729,1.9785,1.9734,2.0002,1.991,1.9926,1.9932,2.0007,2.0039,2.0067,1.9693,1.9691,1.969,0,0,1.961,1.9614,1.971,1.9723,1.974,1.9718,1.9742,1.9743,1.9739,1.984,1.9768,1.9827,1.9924,1.9942,1.9964,2.0181,2.0124,2.02,2.0329,2.0408,2.0435,2.0458,2.0538,2.0567,2.0216,2.0217,2.0217,0,1.9724,1.9819,1.9767,1.9847,1.9873,1.9786,1.9885,1.9901,1.9935,1.9956,1.9898,2.002,2.0027,2.016,2.0214,2.0234,2.0262,2.0198,2.0435,2.0458,2.0479,2.0554,2.0584,2.0226,2.0225,2.0224,2.0223,0,1.9961,2.0028,2.0104,2.0138,2.0173,2.0263,2.0227,2.0269,2.0231,2.0217,2.0324,2.033,2.0382,2.0411,2.0374,2.0541,2.0508,2.0444,2.034,2.0521,2.0591,2.0619,2.0239,2.0236,2.0233,2.0231,0,0,2.0251,2.0257,2.0286,2.0302,2.0316,2.0369,2.0456,2.0505,2.0544,2.0572,2.0645,2.0731,2.0672,2.0698,2.0663,2.0733,2.0908,2.066,2.0659,2.0707,2.1096,2.1145,2.1179,2.087,2.0876,2.088,2.1095,0,2.0454,2.0601,2.0559,2.0707,2.0771,2.0691,2.0768,2.0787,2.0777,2.0832,2.0821,2.0884,2.08,2.0815,2.0881,2.0873,2.0986,2.0857,2.0941,2.0945,2.0939,2.1215,2.1267,2.1469,2.1121,2.1126,2.1129,0,2.0709,2.0746,2.0901,2.0908,2.0933,2.1003,2.1047,2.1099,2.112,2.1109,2.1139,2.1092,2.1181,2.1078,2.1202,2.1116,2.1148,2.1151,2.1157,2.1164,2.1049,2.1232,2.1532,2.1564,2.1172,2.1168,2.1165,0,2.0908,2.0997,2.1102,2.1118,2.1128,2.1179,2.1186,2.1202,2.1236,2.1275,2.1297,2.1347,2.1375,2.1417,2.1386,2.1312,2.1517,2.1409,2.1512,2.1513,2.1559,2.1556,2.1871,2.1578,2.1578,2.1577,2.1576,0,2.1139,2.1238,2.1192,2.1257,2.1366,2.1319,2.143,2.1428,2.1443,2.1509,2.1443,2.1507,2.1461,2.1522,2.1498,2.1607,2.162,2.1615,2.1608,2.1621,2.1622,2.1642,2.1628,2.1585,2.1583,2.1582,2.158,0,2.1379,2.1352,2.1462,2.1463,2.1466,2.1548,2.155,2.1612,2.1598,2.1682,2.1699,2.1679,2.1747,2.172,2.1792,2.1777,2.1917,2.189,2.1909,2.1903,2.2008,2.1999,2.2347,2.2391,2.2069,2.2072,2.2075,0,2.1529,2.1603,2.1613,2.1652,2.1663,2.1726,2.1761,2.1718,2.1758,2.179,2.1849,2.1912,2.1959,2.2073,2.2066,2.2123,2.2098,2.2216,2.2106,2.2119,2.2103,2.2099,2.2108,2.2239,2.2242,2.2245,2.2248,0,2.1798,2.1782,2.1833,2.1882,2.1925,2.1961,2.1991,2.2028,2.1987,2.2035,2.2104,2.2141,2.2216,2.2281,2.2332,2.2341,2.229,2.2283,2.231,2.2325,2.2334,2.2333,2.1971,2.2275,2.2272,2.227,2.2269,2.2268,2.1999,2.2062,2.208,2.2141,2.216,2.2191,2.225,2.2244,2.23,2.2357,2.233,2.2411,2.2434,2.2497,2.2515,2.258,2.2534,2.2573,2.2583,2.2594,2.2608,2.2323,2.2589,2.2588,2.2587,2.2587,2.2586,0,2.2266,2.2275,2.2331,2.2376,2.2425,2.2371,2.2404,2.2449,2.252,2.2546,2.2595,2.2676,2.2739,2.2739,2.2798,2.285,2.2829,2.2868,2.2864,2.2868,2.2644,2.2616,2.2885,2.2885,2.2884,2.2884,2.2884,2.2884,2.2411,2.2517,2.2504,2.262,2.2628,2.2706,2.2729,2.2759,2.278,2.2873,2.2925,2.2924,2.2941,2.3001,2.3058,2.3056,2.3082,2.3131,2.3121,2.2913,2.2883,2.2855,2.2828,2.3137,2.3137,2.3339,2.3341,2.3342]},{"header":{"parameterUnit":"m.s-1","parameterCategory":1,"la1":30.2991,"la2":30.254,"lo1":-89.0895,"lo2":-89.0444,"dy":0.0017,"dx":0.0017,"nx":28,"ny":28,"refTime":"2024-10-14T03:00:00:Z","depth":0,"parameterNumber":3,"parameterNumberName":"V-component_of_WINDS"},"data":[0,0,0,0,0,0,0,0,0,0,0,0,0,0,0,0,0,0,0,0,0,0,0,0,0,0,0,0,0,0,0,0,0,0,0,0,0,0,0,0,0,0,0,0,0,0,0,0,0,0,0,0,0,0,0,0,0,0,-0.3059,-0.3059,0,-0.3108,-0.3108,-0.3109,-0.3219,-0.3221,-0.3224,-0.3226,-0.3271,-0.327,-0.3269,0,0,0,0,0,0,0,0,0,0,0,0,0,-0.3056,-0.3055,-0.3058,-0.3059,-0.306,-0.3108,-0.3108,-0.3109,-0.3219,-0.3221,-0.3224,-0.3227,-0.3271,-0.327,-0.3269,0,0,0,0,0,0,0,0,0,0,0,0,0,-0.3076,-0.3055,-0.3058,-0.312,-0.3126,-0.3107,-0.3108,-0.3109,-0.3218,-0.3221,-0.3225,-0.3228,-0.3272,-0.327,-0.3269,-0.3192,0,0,-0.3265,-0.3264,0,0,0,0,0,0,0,0,-0.3074,-0.3076,-0.3111,-0.3116,-0.3123,-0.3161,-0.3124,-0.3137,-0.3217,-0.3183,-0.3226,-0.323,-0.3231,-0.3233,-0.3235,-0.3194,-0.3196,-0.3265,-0.3264,-0.3263,-0.3263,0,0,0,0,0,0,0,-0.3073,-0.3074,-0.3078,-0.3111,-0.3118,-0.3144,-0.3151,-0.3127,-0.3187,-0.3186,-0.3194,-0.3199,-0.3235,-0.3236,-0.3237,-0.3197,-0.3265,-0.3264,-0.3263,-0.3262,-0.3096,-0.3093,0,0,0,0,0,0,-0.3063,-0.3072,-0.3076,-0.3079,-0.3107,-0.3142,-0.3149,-0.3145,-0.3188,-0.3198,-0.3196,-0.3204,-0.3237,-0.3238,-0.3239,-0.3152,-0.3263,-0.3262,-0.3261,-0.31,-0.3095,-0.3091,0,0,0,0,0,0,-0.3063,-0.3062,-0.3074,-0.3078,-0.3082,-0.3138,-0.3133,-0.3144,-0.3145,-0.3195,-0.3206,-0.3186,-0.324,-0.3241,-0.3204,-0.3155,-0.3261,-0.326,-0.3104,-0.3098,-0.3093,-0.2977,0,0,0,0,0,0,-0.3062,-0.3062,-0.3034,-0.3077,-0.3081,-0.3039,-0.313,-0.3143,-0.3143,-0.3154,-0.3189,-0.3198,-0.3242,-0.3205,-0.3202,-0.3155,-0.3259,-0.3109,-0.3101,-0.3095,-0.2985,-0.2968,-0.2954,0,0,0,0,0,-0.3062,-0.2998,-0.3032,-0.3032,-0.3048,-0.3036,-0.3038,-0.3092,-0.3139,-0.3111,-0.3143,-0.3197,-0.3161,-0.32,-0.3198,-0.315,-0.3112,-0.3103,-0.3096,-0.2993,-0.2972,-0.2954,0,0,0,0,0,0,-0.2946,-0.3005,-0.3043,-0.2992,-0.3008,-0.3055,-0.3021,-0.3068,-0.307,-0.308,-0.3146,-0.3152,-0.3106,-0.3124,-0.3167,-0.3078,-0.3145,-0.3136,-0.3067,-0.3048,-0.3033,-0.3029,-0.3258,0,0,0,0,0,-0.2915,-0.2902,-0.2953,-0.2903,-0.291,-0.2963,-0.296,-0.3001,-0.302,-0.3027,-0.3056,-0.3071,-0.3064,-0.3057,-0.3053,-0.2989,-0.2998,-0.2955,-0.2939,-0.2926,-0.2917,-0.2885,-0.2866,-0.3065,-0.3065,-0.3065,0,0,-0.285,-0.288,-0.2868,-0.2881,-0.2898,-0.2882,-0.2968,-0.2947,-0.2936,-0.3023,-0.299,-0.3012,-0.3033,-0.2982,-0.2961,-0.2996,-0.2864,-0.2916,-0.2905,-0.2903,-0.2874,-0.2855,-0.2839,-0.3059,-0.306,-0.3061,0,0,-0.2723,-0.2745,-0.2706,-0.2722,-0.2748,-0.2785,-0.2775,-0.2815,-0.2833,-0.2801,-0.2867,-0.2853,-0.2838,-0.2851,-0.2855,-0.2734,-0.2783,-0.2731,-0.2647,-0.2615,-0.2599,-0.2586,-0.2542,-0.2526,-0.2722,-0.2722,-0.2722,0,-0.2638,-0.2618,-0.2679,-0.2654,-0.2657,-0.2738,-0.2698,-0.271,-0.2732,-0.2732,-0.2772,-0.2756,-0.2776,-0.2729,-0.2699,-0.27,-0.2691,-0.2727,-0.2597,-0.2584,-0.2572,-0.2531,-0.2515,-0.2715,-0.2716,-0.2717,-0.2717,0,-0.2512,-0.2497,-0.2462,-0.2483,-0.2483,-0.245,-0.2505,-0.2497,-0.2538,-0.257,-0.2536,-0.2563,-0.2566,-0.2558,-0.2596,-0.2516,-0.2537,-0.2586,-0.2654,-0.2546,-0.2508,-0.2493,-0.2706,-0.2708,-0.271,-0.2712,0,0,-0.2312,-0.237,-0.2356,-0.2367,-0.2402,-0.239,-0.2361,-0.2366,-0.2357,-0.237,-0.2347,-0.2333,-0.2379,-0.2384,-0.2424,-0.2396,-0.2298,-0.2448,-0.245,-0.2419,-0.2211,-0.2173,-0.2154,-0.2331,-0.2329,-0.2326,-0.2209,0,-0.2193,-0.2148,-0.2203,-0.2146,-0.2132,-0.2208,-0.2183,-0.2201,-0.223,-0.2222,-0.2254,-0.2243,-0.2304,-0.2308,-0.2283,-0.2315,-0.2257,-0.2324,-0.2309,-0.2307,-0.23,-0.2135,-0.2095,-0.1983,-0.2195,-0.2192,-0.219,0,-0.2048,-0.2056,-0.1997,-0.2037,-0.2033,-0.201,-0.2018,-0.201,-0.2032,-0.2055,-0.2061,-0.2111,-0.2084,-0.2151,-0.2115,-0.2159,-0.2156,-0.2171,-0.2168,-0.2168,-0.2241,-0.2129,-0.1949,-0.1931,-0.2168,-0.217,-0.2171,0,-0.1907,-0.1904,-0.1869,-0.1876,-0.1921,-0.1902,-0.192,-0.1946,-0.1945,-0.1952,-0.1952,-0.1955,-0.1956,-0.1957,-0.2006,-0.2051,-0.1963,-0.2035,-0.198,-0.1979,-0.1957,-0.1958,-0.1773,-0.1956,-0.1957,-0.1957,-0.1957,0,-0.1768,-0.1729,-0.1806,-0.1784,-0.1743,-0.1806,-0.1762,-0.1788,-0.181,-0.1793,-0.186,-0.1842,-0.1908,-0.1898,-0.1936,-0.1899,-0.19,-0.1917,-0.1927,-0.191,-0.1908,-0.1908,-0.1917,-0.1953,-0.1954,-0.1954,-0.1955,0,-0.1604,-0.1654,-0.1621,-0.1667,-0.1678,-0.1645,-0.1684,-0.1665,-0.1699,-0.1677,-0.1676,-0.1729,-0.172,-0.1769,-0.1769,-0.1794,-0.1739,-0.1763,-0.1731,-0.1739,-0.1681,-0.1686,-0.1489,-0.1466,-0.1665,-0.1663,-0.1661,0,-0.1511,-0.1484,-0.1527,-0.1522,-0.1537,-0.1527,-0.1527,-0.1588,-0.1585,-0.1608,-0.1586,-0.1583,-0.1584,-0.1566,-0.1604,-0.1604,-0.1628,-0.1559,-0.1628,-0.1612,-0.1626,-0.1626,-0.1624,-0.1544,-0.1541,-0.1539,-0.1538,0,-0.1341,-0.1368,-0.1367,-0.1374,-0.1372,-0.138,-0.1393,-0.1384,-0.145,-0.1443,-0.1436,-0.1437,-0.1437,-0.1433,-0.1441,-0.1458,-0.1507,-0.1516,-0.1503,-0.1485,-0.1468,-0.1476,-0.1691,-0.152,-0.1522,-0.1523,-0.1524,-0.1525,-0.121,-0.1189,-0.1217,-0.1213,-0.1229,-0.1239,-0.1224,-0.1257,-0.1252,-0.1259,-0.1295,-0.128,-0.1303,-0.1319,-0.1331,-0.132,-0.1353,-0.1335,-0.133,-0.1324,-0.1314,-0.1471,-0.1322,-0.1323,-0.1323,-0.1324,-0.1324,0,-0.1043,-0.1065,-0.1061,-0.1077,-0.1074,-0.1124,-0.114,-0.1133,-0.1121,-0.1139,-0.1139,-0.113,-0.1127,-0.1164,-0.1165,-0.1149,-0.1172,-0.1147,-0.1149,-0.1152,-0.1285,-0.1295,-0.1129,-0.1129,-0.1129,-0.1129,-0.1129,-0.1129,-0.0956,-0.0923,-0.0953,-0.0928,-0.095,-0.0938,-0.0943,-0.0952,-0.0967,-0.0955,-0.0953,-0.0979,-0.1004,-0.1008,-0.1007,-0.1018,-0.1014,-0.0981,-0.1,-0.1123,-0.1142,-0.116,-0.1171,-0.098,-0.098,-0.0868,-0.0867,-0.0866]}]]